(74220) = 2000 AU88 = 1998 RX78

Discovered at Socorro on 1998-09-14 by LINEAR.

Orbit

Orbit type: Main Belt

Note: WebGL enabled browser required.

epoch2023-02-25.0
epoch JD2460000.5
perihelion date2021-07-06.26721
perihelion JD2459401.76721
argument of perihelion (°)281.83183
ascending node (°)131.21597
inclination (°)6.69264
eccentricity0.0504393
perihelion distance (AU)2.5699663
Tisserand w.r.t. Jupiter3.4
ΔV w.r.t. Earth (km/sec)10.2
semimajor axis (AU)2.7064792
mean anomaly (°)132.53477
mean daily motion (°/day)0.22135880
aphelion distance (AU)2.843
period (years)4.45
P-vector [x]0.59613145
P-vector [y]0.77453546
P-vector [z]0.21147606
Q-vector [x]-0.79808629
Q-vector [y]0.54288236
Q-vector [z]0.26141349
absolute magnitude15.28
phase slope0.15
uncertainty0
referenceMPO 745323
observations used1194
oppositions17
arc length (days)9005
first opposition used1998
last opposition used2023
residual rms (arc-secs)0.72
perturbers coarse indicatorM-v
perturbers precise indicator003Ek
first observation date used1998-09-14.0
last observation date used2023-05-11.0
computer nameMPCLINUX
JD of orbit computation2456937.497708
perihelion JD uncertainty (days)2.2537E-04
argument of perihelion uncertainty (°)5.8728E-05
ascending node uncertainty (°)3.3503E-05
inclination uncertainty (°)4.5915E-06
eccentricity uncertainty 3.7640E-08
perihelion distance uncertainty (AU)1.0206E-07
Minimum Orbit Intersection Distances (in AU)
for orbit epoch: 2460000.5, reference: E2023-JB1
Mercury2.25178
Venus1.85149
Earth1.59001
Mars1.01854
Jupiter2.33144
Saturn6.46336
Uranus15.6824
Neptune27.269

Observations

1222 total observations over interval: 1998 09 14.36899 – 2023 05 11.347188
These data are available for download (format description).

Date (UT) J2000 RA J2000 Dec Magn Location Ref
1998 09 14.36899 00 58 32.87 -02 54 18.8 18.9   704 – Lincoln Laboratory ETS, New Mexico MPS 2663
1998 09 14.39112 00 58 31.96 -02 54 27.7 19.3   704 – Lincoln Laboratory ETS, New Mexico MPS 2663
1998 09 14.41328 00 58 31.01 -02 54 36.4 19.9   704 – Lincoln Laboratory ETS, New Mexico MPS 2663
1998 09 18.38033 00 55 59.78 -03 22 47.3 19.1   704 – Lincoln Laboratory ETS, New Mexico MPS 2663
1998 09 18.39336 00 55 59.17 -03 22 51.7 19.1   704 – Lincoln Laboratory ETS, New Mexico MPS 2663
1998 09 18.40700 00 55 58.87 -03 22 56.4 19.1   704 – Lincoln Laboratory ETS, New Mexico MPS 2663
1998 09 18.42059 00 55 58.11 -03 23 02.9 19.8   704 – Lincoln Laboratory ETS, New Mexico MPS 2663
1998 09 21.34919 00 53 57.00 -03 44 01.4 18.3 R 699 – Lowell Observatory-LONEOS MPS 54327
1998 09 21.38548 00 53 55.32 -03 44 16.0   699 – Lowell Observatory-LONEOS MPS 54327
1998 09 21.41080 00 53 54.22 -03 44 27.4   699 – Lowell Observatory-LONEOS MPS 54327
1998 09 24.03140 00 51 59.91 -04 03 13.0 19.4 V 910 – Caussols-ODAS MPS 3344
1998 09 24.05517 00 51 58.81 -04 03 23.2 19.5 V 910 – Caussols-ODAS MPS 3344
1998 09 24.07893 00 51 57.71 -04 03 33.4 19.7 V 910 – Caussols-ODAS MPS 3344
1998 09 26.21928 00 50 21.25 -04 18 42.4 18.9   704 – Lincoln Laboratory ETS, New Mexico MPS 2663
1998 09 26.23600 00 50 20.34 -04 18 50.7 19.2   704 – Lincoln Laboratory ETS, New Mexico MPS 2663
1998 09 26.25266 00 50 19.73 -04 18 58.5 19.2   704 – Lincoln Laboratory ETS, New Mexico MPS 2663
1998 09 26.26934 00 50 18.84 -04 19 05.5 18.8   704 – Lincoln Laboratory ETS, New Mexico MPS 2663
1998 09 27.30341 00 49 31.10 -04 26 20.1 18.7   704 – Lincoln Laboratory ETS, New Mexico MPS 2663
1998 09 27.32143 00 49 30.19 -04 26 26.9 18.7   704 – Lincoln Laboratory ETS, New Mexico MPS 2663
1998 09 27.33893 00 49 29.37 -04 26 35.8 19.5   704 – Lincoln Laboratory ETS, New Mexico MPS 2663
1998 09 27.35634 00 49 28.61 -04 26 41.1 19.8   704 – Lincoln Laboratory ETS, New Mexico MPS 2663
2000 01 05.30377 08 42 34.92 +16 03 14.6 18.7   704 – Lincoln Laboratory ETS, New Mexico MPS 9317
2000 01 05.31844 08 42 34.25 +16 03 17.9 19.5   704 – Lincoln Laboratory ETS, New Mexico MPS 9317
2000 01 05.33301 08 42 33.60 +16 03 22.8 19.6   704 – Lincoln Laboratory ETS, New Mexico MPS 9317
2000 01 05.34758 08 42 32.90 +16 03 28.5 19.6   704 – Lincoln Laboratory ETS, New Mexico MPS 9317
2000 01 05.36218 08 42 32.31 +16 03 30.9 19.0   704 – Lincoln Laboratory ETS, New Mexico MPS 9317
2000 01 06.31399 08 41 51.67 +16 08 08.8 18.0   704 – Lincoln Laboratory ETS, New Mexico MPS 9317
2000 01 06.32863 08 41 51.02 +16 08 12.9 18.7   704 – Lincoln Laboratory ETS, New Mexico MPS 9317
2000 01 06.34338 08 41 50.30 +16 08 17.7 18.1   704 – Lincoln Laboratory ETS, New Mexico MPS 9317
2000 01 06.35802 08 41 49.66 +16 08 21.9 17.8   704 – Lincoln Laboratory ETS, New Mexico MPS 9317
2000 01 07.31004 08 41 07.90 +16 13 06.4 19.6   704 – Lincoln Laboratory ETS, New Mexico MPS 26404
2000 01 07.32478 08 41 07.21 +16 13 12.2 19.7   704 – Lincoln Laboratory ETS, New Mexico MPS 26404
2000 01 07.33947 08 41 06.53 +16 13 15.1 19.3   704 – Lincoln Laboratory ETS, New Mexico MPS 26404
2000 01 07.35411 08 41 05.83 +16 13 19.4 19.4   704 – Lincoln Laboratory ETS, New Mexico MPS 26404
2000 01 25.82223 08 25 09.15 +17 56 01.0 18.6   120 – Visnjan MPS 9876
2000 01 25.83964 08 25 08.30 +17 56 07.9   120 – Visnjan MPS 9876
2000 01 25.85839 08 25 07.25 +17 56 14.1   120 – Visnjan MPS 9876
2000 01 25.86323 08 25 06.90 +17 56 15.3   120 – Visnjan MPS 9876
2000 01 25.86947 08 25 06.63 +17 56 17.7   120 – Visnjan MPS 9876
2000 01 27.83131 08 23 18.14 +18 07 40.0 18.7   120 – Visnjan MPS 9876
2000 01 27.85006 08 23 17.09 +18 07 44.9   120 – Visnjan MPS 9876
2000 01 30.87643 08 20 30.81 +18 25 05.1 19.2   120 – Visnjan MPS 9876
2000 01 30.90906 08 20 28.94 +18 25 16.8   120 – Visnjan MPS 9876
2000 01 30.94932 08 20 26.74 +18 25 31.1   120 – Visnjan MPS 9876
2000 02 02.25377 08 18 22.48 +18 38 30.1 18.7   704 – Lincoln Laboratory ETS, New Mexico MPS 9876
2000 02 02.26817 08 18 21.68 +18 38 34.7 18.7   704 – Lincoln Laboratory ETS, New Mexico MPS 9876
2000 02 02.28268 08 18 20.85 +18 38 39.4 19.1   704 – Lincoln Laboratory ETS, New Mexico MPS 9876
2000 02 02.29702 08 18 20.11 +18 38 44.1 18.7   704 – Lincoln Laboratory ETS, New Mexico MPS 9876
2000 02 02.31175 08 18 19.27 +18 38 50.6 19.0   704 – Lincoln Laboratory ETS, New Mexico MPS 9876
2000 02 03.23119 08 17 30.69 +18 43 55.8 18.4 V 691 – Steward Observatory, Kitt Peak-Spacewatch MPS 9876
2000 02 03.24573 08 17 29.76 +18 44 00.7 19.6   704 – Lincoln Laboratory ETS, New Mexico MPS 9876
2000 02 03.25346 08 17 29.48 +18 44 03.0 18.3 V 691 – Steward Observatory, Kitt Peak-Spacewatch MPS 9876
2000 02 03.26038 08 17 29.12 +18 44 05.1 19.3   704 – Lincoln Laboratory ETS, New Mexico MPS 9876
2000 02 03.27501 08 17 28.23 +18 44 10.8 19.4   704 – Lincoln Laboratory ETS, New Mexico MPS 9876
2000 02 03.27548 08 17 28.28 +18 44 10.6 18.3 V 691 – Steward Observatory, Kitt Peak-Spacewatch MPS 9876
2000 02 03.28967 08 17 27.46 +18 44 15.3 19.2   704 – Lincoln Laboratory ETS, New Mexico MPS 9876
2000 02 12.31498 08 10 04.61 +19 31 32.7 18.3 V 691 – Steward Observatory, Kitt Peak-Spacewatch MPS 9876
2000 02 12.34320 08 10 03.31 +19 31 40.9 18.4 V 691 – Steward Observatory, Kitt Peak-Spacewatch MPS 9876
2000 02 12.37142 08 10 02.00 +19 31 49.2 18.2 V 691 – Steward Observatory, Kitt Peak-Spacewatch MPS 9876
2002 07 23.30619 21 42 03.74 -14 23 39.6 19.9   644 – Palomar Mountain/NEAT MPS 60759
2002 07 23.31915 21 42 03.26 -14 23 42.8 19.4   644 – Palomar Mountain/NEAT MPS 60759
2002 07 23.33931 21 42 02.45 -14 23 50.0 19.6   644 – Palomar Mountain/NEAT MPS 60759
2002 07 29.23453 21 38 03.59 -14 59 22.4 19.1   644 – Palomar Mountain/NEAT MPS 60759
2002 07 29.29758 21 38 00.76 -14 59 46.1 18.6   644 – Palomar Mountain/NEAT MPS 60759
2002 07 29.36362 21 37 57.80 -15 00 11.1 18.7   644 – Palomar Mountain/NEAT MPS 60759
2002 08 08.21529 21 30 17.69 -16 03 45.9 18.2 R 699 – Lowell Observatory-LONEOS MPS 59577
2002 08 08.22933 21 30 16.91 -16 03 51.7   699 – Lowell Observatory-LONEOS MPS 59577
2002 08 08.24334 21 30 16.24 -16 03 57.5   699 – Lowell Observatory-LONEOS MPS 59577
2002 08 08.25740 21 30 15.46 -16 04 03.0   699 – Lowell Observatory-LONEOS MPS 59577
2002 08 08.35288 21 30 10.68 -16 04 41.0 18.3   644 – Palomar Mountain/NEAT MPS 59577
2002 08 08.36457 21 30 10.08 -16 04 45.7 18.1   644 – Palomar Mountain/NEAT MPS 59577
2002 08 08.37499 21 30 09.53 -16 04 49.7 18.4   644 – Palomar Mountain/NEAT MPS 59577
2002 08 12.48227 21 26 45.32 -16 31 41.7 19.5   608 – Haleakala-AMOS MPS 59577
2002 08 12.49317 21 26 44.77 -16 31 45.8 19.2   608 – Haleakala-AMOS MPS 59577
2002 08 12.50402 21 26 44.20 -16 31 50.1 19.6   608 – Haleakala-AMOS MPS 59577
2002 08 14.29597 21 25 14.92 -16 43 28.6 18.2   704 – Lincoln Laboratory ETS, New Mexico MPS 59577
2002 08 14.31142 21 25 14.07 -16 43 34.2 18.4   704 – Lincoln Laboratory ETS, New Mexico MPS 59577
2002 08 14.32688 21 25 13.26 -16 43 40.9 18.4   704 – Lincoln Laboratory ETS, New Mexico MPS 59577
2002 08 14.34234 21 25 12.55 -16 43 45.8 18.8   704 – Lincoln Laboratory ETS, New Mexico MPS 59577
2002 08 14.35780 21 25 11.68 -16 43 51.7 18.5   704 – Lincoln Laboratory ETS, New Mexico MPS 59577
2002 08 18.29544 21 21 56.37 -17 08 52.7 19.0   644 – Palomar Mountain/NEAT MPS 60759
2002 08 18.32606 21 21 54.82 -17 09 04.1 18.8   644 – Palomar Mountain/NEAT MPS 60759
2002 08 18.35636 21 21 53.28 -17 09 15.4 18.7   644 – Palomar Mountain/NEAT MPS 60759
2002 08 29.27999 21 13 27.33 -18 12 44.9 19.3   644 – Palomar Mountain/NEAT MPS 60759
2002 08 29.30227 21 13 26.37 -18 12 51.8 19.0   644 – Palomar Mountain/NEAT MPS 60759
2002 08 29.32315 21 13 25.46 -18 12 58.3 18.9   644 – Palomar Mountain/NEAT MPS 60759
2002 08 31.20626 21 12 07.43 -18 22 42.4 18.7   704 – Lincoln Laboratory ETS, New Mexico MPS 60759
2002 08 31.22135 21 12 06.80 -18 22 47.9 19.4   704 – Lincoln Laboratory ETS, New Mexico MPS 60759
2002 08 31.23522 21 12 06.19 -18 22 52.0 19.7   704 – Lincoln Laboratory ETS, New Mexico MPS 60759
2002 09 02.48956 21 10 37.15 -18 33 58.8 20.8   608 – Haleakala-AMOS MPS 60759
